Location: Hurecourt
(47.9030°N, 6.0653°E)
Time: 19:20:19
(UTC+00:00)

Cosmos 2233 Rocket - Pass Details

Date: 14 July 2020
Orbit: 954 x 990 km, 82.9° (Epoch: 14 August)

Event Time Altitude Azimuth Distance (km) Brightness Sun altitude
Exits shadow 02:39:39 12° 211° (SSW) 2,580 5.6 -9.9°
Maximum altitude 02:45:18 51° 285° (WNW) 1,217 4.4 -9.2°
Drops below altitude 10° 02:51:25 10° 0° (N) 2,743 7.1 -8.5°
Sets 02:54:03 0° 6° (N) 3,700 8.0 -8.2°
